Dean International
Flight School

Career Spotlight

Mika

Mika

Congratulations to Mika from Khazakstan. She recently sent us this photo of her flying an Airbus airliner.

More...
Mika's Success Story
close

Congratulations to Mika from Khazakstan. She recently sent us this photo of her flying an Airbus airliner.

Mario

Mario

My dreams could not have been realized if I wouldn't have been part of the Dean International family.

More...
Mario's Success Story
close

"My dreams could not have been realized if I wouldn't have been part of the Dean International family. Thank you Robert, thanks to all my co-workers, and thanks to all of my students!"

Fernando

Fernando

I am now working as a First Officer at TACA and am enjoying every moment of it.

More...
Fernando's Success Story
close

"Will never forget my time of flight training at Dean International. I am now working as a First Officer at TACA and am enjoying every moment of it."

Alvaro

Alvaro

Because of the flight time I was able to built while instructing, I got the experience needed to apply to an airline in Colombia.

More...
Alvaro's Success Story
close

Dean alumnus Alvaro Londoño currently flies with Tampa Cargo. He says of his experience at Dean: "I want to take this opportunity to thank you for giving me the chance to build my experience and expand my knowledge in Dean International. Because of the flight time I was able to built flight instructing, I got the experience needed to apply to an airline in Colombia."

Ralph

Ralph

Every Aruban student of Dean International has made it into Tiara Air Aruba, that is very nice.

More...
Ralph's Success Story
close

"Next to me is my Co-Pilot, Elison. This picture was taken on our first flight together, which was almost exactly 5 years after I finished at Dean International. [...] Every Aruban student of Dean International has made it into Tiara Air Aruba. [...] The future looks bright here in Aruba."

Rohaan

Rohaan

The [..] staff will all work diligently to help you finish your certificates as safely and efficiently as possible.

More...
Rohaan's Success Story
close

After receiving very hard times from other flight schools [...], I came to Dean International where Robert Dean personally sat down with me and gave me a financial and chronological look into how much remained to finish my private pilot certificate. Through his hard efforts as an instructor and mentor, I was able to finish my private pilot certificate within one week.

Welcome to Dean International

In over two decades, Dean International has educated over 7,000 pilots from all over the world, including over 1,000 students from India alone. By offering a great training experience, a friendly service staff, an ample variety of aircraft, and by improving constantly, we have become one of the largest, most prestigious FAA 141-approved flight schools in North America. Located in Miami, Florida, USA, our flight school offers an ideal location for year-round, "learn to fly" weather, flight training. Dean International is not only well-equipped to provide services to professional trainees but also caters to General Aviation renters. Visit or contact our headquarters at Kendall-Tamiami Executive Airport located in Miami, FL today to learn more about us, or simply read more about our programs if you are an international student interested in joining our school.

Local Airport Information
TAF FOR KTMB (Issued: Fri, January 30th 2015 6:30 PM UTC)
TAF KTMB 301727Z 3018/3118 33009KT P6SM SCT050
      FM311000 01007KT P6SM SKC
     
METAR FOR KTMB (Issued: Fri, January 30th 2015 5:53 PM UTC):
KTMB 301753Z 32009KT 280V350 10SM CLR 24/11 A3018 RMK AO2 SLP218 T02440106 10244 20133 58020

This weather information is provided by the National Weather Service.
It is automatically refreshed every three minutes.
TAF FOR KHST (Issued: Fri, January 30th 2015 4:11 PM UTC)
TAF KHST 3016/3122 33006KT 9999 FEW035 QNH3011INS
      BECMG 3108/3109 01012KT 9999 BKN025 QNH3013INS
      BECMG 3114/3115 04012G18KT 9999 FEW030 QNH3022INS TX23/3020Z TN14/3108Z
     
METAR FOR KHST (Issued: Fri, January 30th 2015 5:58 PM UTC):
KHST 301758Z AUTO 27006KT 10SM CLR 24/10 A3017 RMK AO2 SLP220 T02370104 10237 20137 58020

This weather information is provided by the National Weather Service.
It is automatically refreshed every three minutes.
TAF FOR KOPF (Issued: Fri, January 30th 2015 6:30 PM UTC)
TAF KOPF 301727Z 3018/3118 31008KT P6SM SCT050
      FM310500 02010KT P6SM SKC
     
METAR FOR KOPF (Issued: Fri, January 30th 2015 5:53 PM UTC):
KOPF 301753Z 28008KT 10SM FEW090 23/11 A3017 RMK AO2 SLP218 T02280106 10228 20150 58022

This weather information is provided by the National Weather Service.
It is automatically refreshed every three minutes.
TAF FOR KMIA (Issued: Fri, January 30th 2015 6:33 PM UTC)
TAF KMIA 301727Z 3018/3118 32007KT P6SM SKC
     
METAR FOR KMIA (Issued: Fri, January 30th 2015 5:53 PM UTC):
KMIA 301753Z VRB06KT 10SM FEW048 SCT300 23/10 A3018 RMK AO2 SLP218 T02280100 10233 20150 58020

This weather information is provided by the National Weather Service.
It is automatically refreshed every three minutes.
Design by Ariel Llizo
© Dean International Inc. 2012